Location: Balsareny
(41.8670°N, 1.8830°E)
Time: 13:24:25
(UTC+02:00)

ISS - Visible Passes

Search period start: 25 September 2022 00:00
Search period end: 05 October 2022 00:00
Orbit: 414 x 417 km, 51.6° (Epoch: 25 September)

Date Brightness Start Highest point End Pass type
(mag) Time Alt. Az. Time Alt. Az. Time Alt. Az.
25 Sep -1.3 20:33:09 10° NW 20:35:16 15° N 20:37:22 10° NE visible
25 Sep -1.0 22:10:10 10° NW 22:11:13 16° NNW 22:11:13 16° NNW visible
26 Sep -1.7 21:21:35 10° NW 21:24:02 18° NNE 21:24:22 18° NNE visible
27 Sep -1.5 20:32:54 10° NW 20:35:08 16° N 20:37:22 10° NE visible
27 Sep -1.0 22:09:22 10° NW 22:10:25 18° NW 22:10:25 18° NW visible
28 Sep -2.3 21:20:48 10° NW 21:23:35 27° NNE 21:23:35 27° NNE visible
29 Sep -2.0 20:32:12 10° NW 20:34:53 21° NNE 20:36:46 14° ENE visible
29 Sep -1.0 22:08:35 10° NW 22:09:39 19° NW 22:09:39 19° NW visible
30 Sep -3.3 21:19:54 10° NW 21:22:53 52° N 21:22:53 52° N visible
01 Oct -2.9 20:31:16 10° NW 20:34:25 36° NNE 20:36:10 21° E visible
01 Oct -0.8 22:08:04 10° WNW 22:09:03 17° W 22:09:03 17° W visible
02 Oct -3.3 21:19:08 10° WNW 21:22:24 56° SW 21:22:24 56° SW visible
03 Oct -3.8 20:30:19 10° NW 20:33:41 84° NE 20:35:50 20° ESE visible
03 Oct -0.4 22:08:40 10° WSW 22:08:43 10° WSW 22:08:43 10° WSW visible
04 Oct -1.6 21:18:48 10° W 21:21:22 20° SW 21:22:17 18° SSW visible
